This is the latest recevied weather packets stored in our database for station/object NB9X. If no packets are shown the sender has not sent any weather packets the latest 10 day(s).
| Time | Temp. | Humidity | Pressure | Rain* | Wind** | Luminosity | Snow |
|---|---|---|---|---|---|---|---|
| 1778181786 | 31.11° C | 100% | 1014.3 hPa | 0 mm | - | - | - |
| 1778181486 | 31.11° C | 100% | 1014.4 hPa | 0 mm | - | - | - |
| 1778181186 | 31.67° C | 100% | 1014.5 hPa | 0 mm | - | - | - |
| 1778180886 | 32.22° C | 100% | 1014.5 hPa | 0 mm | - | - | - |
| 1778180586 | 32.22° C | 100% | 1014.5 hPa | 0 mm | - | - | - |
| 1778180286 | 31.11° C | 100% | 1014.6 hPa | 0 mm | - | - | - |
| 1778179986 | 31.67° C | 100% | 1014.8 hPa | 0 mm | - | - | - |
| 1778179819 | 31.11° C | 100% | 1014.7 hPa | 0 mm | - | - | - |
| 1778179686 | 31.11° C | 100% | 1014.7 hPa | 0 mm | - | - | - |
| 1778179386 | 30.56° C | 100% | 1014.8 hPa | 0 mm | - | - | - |
| 1778179086 | 31.11° C | 100% | 1014.9 hPa | 0 mm | - | - | - |
| 1778178786 | 31.67° C | 100% | 1014.9 hPa | 0 mm | - | - | - |
| 1778178486 | 31.11° C | 100% | 1015 hPa | 0 mm | - | - | - |
| 1778178186 | 31.11° C | 100% | 1014.9 hPa | 0 mm | - | - | - |
| 1778177886 | 31.67° C | 100% | 1015 hPa | 0 mm | - | - | - |
| 1778177716 | 31.11° C | 100% | 1015.1 hPa | 0 mm | - | - | - |
| 1778177586 | 31.67° C | 100% | 1015.1 hPa | 0 mm | - | - | - |
| 1778177286 | 31.11° C | 100% | 1015.1 hPa | 0 mm | - | - | - |
| 1778176986 | 31.11° C | 100% | 1015.1 hPa | 0 mm | - | - | - |
| 1778176686 | 31.67° C | 100% | 1015.1 hPa | 0 mm | - | - | - |
| 1778176386 | 31.11° C | 100% | 1015 hPa | 0 mm | - | - | - |
| 1778176086 | 30.56° C | 100% | 1015.1 hPa | 0 mm | - | - | - |
| 1778175786 | 30° C | 100% | 1015.1 hPa | 0 mm | - | - | - |
| 1778175486 | 30.56° C | 100% | 1015.1 hPa | 0 mm | - | - | - |
| 1778175186 | 30.56° C | 100% | 1015.1 hPa | 0 mm | - | - | - |
* Rain latest hour (hover to see other rain measurements)
** Current wind speed in m/s (hover to see current wind gust speed)